Погода в Частых

Россия / Пермский край     57°17′35″N   54°58′10″E
темп.,
°C
ветер,
м/с
пор.,
м/с
влажн.,
%
обл.,
%
осадки,
мм/ч
давл.,
гПа
погр.,
м
27 января, чт
чт2723:00−18юв2299100 0.0 101818
02:00−12ю2595100 0.6 1017206
05:00−11ююз3895100 1.4 1016391
08:00−11юз4994100 0.3 1017439
11:00−11юз5992100 0.6 1018501
14:00−11юз5991100 0.1 1020542
17:00−12юз4992100 0.2 1021454
20:00−14ююз389584 0.1 1022227
28 января, пт
пт2823:00−17ююз379989 0.1 1023145
02:00−20ю2310088 0.0 102338
05:00−21ю2310098 0.1 102436
08:00−20ю2410097 0.1 102453
11:00−17ю249792 0.1 1024105
14:00−12ююз239399 0.1 1023211
17:00−13юв119849 0.1 10239
20:00−18в1110097 0.0 10239
29 января, сб
сб2923:00−16в1199100 0.0 102210
02:00−13всв1296100 0.0 102141
05:00−14всв139793 0.0 102052
08:00−13всв2695100 0.0 1018112
11:00−10вюв269076 0.0 1017147
14:00−7юв2387100 0.0 1016202
17:00−8юв119590 0.0 101514
20:00−12юв2297100 0.0 101531
30 января, вс
вс3023:00−12юв2596100 0.0 1014101
02:00−12юв2596100 0.0 1012119
05:00−12юв2596100 0.0 1011148
08:00−10ююв3895100 0.3 1009318
11:00−9ююв3993100 0.4 1008365
14:00−7ююв3791100 0.1 1007392
17:00−7юв3795100 0.3 1006293
20:00−6юв3896100 0.4 1005270
31 января, пн
пн3123:00−6юв2597100 0.8 1004147
02:00−3ююз51094100 0.5 1005570
05:00−5ююз51093100 0.7 1006485
08:00−6ю41093100 0.1 1007461
11:00−7ю51192100 0.1 1009526
14:00−5ююв51191100 0.0 1009566
17:00−4ююв51393100 0.3 1008682
20:00−2ю61493100 0.3 1008710